This is the latest recevied weather packets stored in our database for station/object WB5CFT. If no packets are shown the sender has not sent any weather packets the latest 10 day(s).
| Time | Temp. | Humidity | Pressure | Rain* | Wind** | Luminosity | Snow |
|---|---|---|---|---|---|---|---|
| 1777936152 | 29.44° C | 18% | 1009.3 hPa | 0 mm | - | 311 W/m² | - |
| 1777935849 | 30° C | 18% | 1009.6 hPa | 0 mm | - | 286 W/m² | - |
| 1777935548 | 29.44° C | 19% | 1009.5 hPa | 0 mm | - | 358 W/m² | - |
| 1777935244 | 28.89° C | 19% | 1009.5 hPa | 0 mm | - | 388 W/m² | - |
| 1777934942 | 28.89° C | 19% | 1009.5 hPa | 0 mm | - | 197 W/m² | - |
| 1777934638 | 28.89° C | 20% | 1009.4 hPa | 0 mm | - | 304 W/m² | - |
| 1777934335 | 28.89° C | 20% | 1009.5 hPa | 0 mm | - | 216 W/m² | - |
| 1777934036 | 28.89° C | 19% | 1009.5 hPa | 0 mm | - | 212 W/m² | - |
| 1777933733 | 28.89° C | 19% | 1009.4 hPa | 0 mm | - | 220 W/m² | - |
| 1777933430 | 28.89° C | 19% | 1009.6 hPa | 0 mm | - | 208 W/m² | - |
| 1777933128 | 28.89° C | 18% | 1009.8 hPa | 0 mm | - | 247 W/m² | - |
| 1777932824 | 28.89° C | 18% | 1009.8 hPa | 0 mm | - | 218 W/m² | - |
| 1777932522 | 29.44° C | 18% | 1009.9 hPa | 0 mm | - | 241 W/m² | - |
| 1777932218 | 28.89° C | 18% | 1009.9 hPa | 0 mm | - | 236 W/m² | - |
| 1777931915 | 29.44° C | 19% | 1009.6 hPa | 0 mm | - | 317 W/m² | - |
| 1777931612 | 29.44° C | 19% | 1009.9 hPa | 0 mm | - | 292 W/m² | - |
| 1777931308 | 29.44° C | 19% | 1009.9 hPa | 0 mm | - | 223 W/m² | - |
| 1777931005 | 29.44° C | 18% | 1009.8 hPa | 0 mm | - | 327 W/m² | - |
| 1777930702 | 29.44° C | 17% | 1010 hPa | 0 mm | - | 237 W/m² | - |
| 1777930398 | 29.44° C | 19% | 1009.9 hPa | 0 mm | - | 222 W/m² | - |
| 1777930095 | 30° C | 18% | 1009.9 hPa | 0 mm | - | 428 W/m² | - |
| 1777929791 | 30° C | 18% | 1009.8 hPa | 0 mm | - | 582 W/m² | - |
| 1777929489 | 30° C | 18% | 1010 hPa | 0 mm | - | 656 W/m² | - |
| 1777929185 | 30° C | 18% | 1010.1 hPa | 0 mm | - | 555 W/m² | - |
| 1777928883 | 30° C | 19% | 1010.4 hPa | 0 mm | - | 534 W/m² | - |
* Rain latest hour (hover to see other rain measurements)
** Current wind speed in m/s (hover to see current wind gust speed)